Home > Time Zones > World Clock > Weather > India > Thane > Past weeks

Flag for India Weather past 2 weeks in Thane, Maharashtra, India

Now
91 °F

Scattered clouds.


Feels Like: 108 °F
Forecast: 86 / 94 °F
Wind: 9 mph from West

Location: Bombay / Santacruz

Current Time: May 28, 2015 at 1:54:32 PM

Latest Report: May 28, 2015 at 1:10 PM


Visibility: 3 mi

Pressure: 29.77 "Hg

Humidity: 67%

Dew point: 79 °F

Location of ThaneLocation

Historic Weather in Thane — Graph

°F

Thane temperature yesterday

Maximum temperature yesterday: 91 °F (at 10:40 AM)
Minimum temperature yesterday: 86 °F (at 1:10 AM)
Average temperature yesterday: 88 °F

Past Weeks' High & Low Weather Summary

 TemperatureHumidityPressure
High95 °F (May 14, 10:40 AM)89% (May 16, 12:40 AM)29.86 "Hg (May 16, 12:40 AM)
Low84 °F (May 15, 3:40 AM)41% (May 14, 11:10 AM)29.62 "Hg (May 16, 3:40 PM)
Average88 °F72%29.76 "Hg
* Reported May 13 12:40 PM — May 28 12:40 PM, Thane, Weather by CustomWeather, © 2015

Note: Actual official high and low records may vary slightly from our data, if they occured in-between our weather recording intervals... More about our weather records

Advertising

Thane weather history for previous 24 hours

 ConditionsComfort  
Time TempWeatherWind HumidityBarometerVisibility
12:40 PM
Thu, May 28
91 °FScattered clouds.8 mph67%29.77 "Hg3 mi
12:10 PM93 °FScattered clouds.8 mph63%29.77 "Hg3 mi
11:40 AM91 °FScattered clouds.14 mph67%29.77 "Hg3 mi
11:10 AM91 °FScattered clouds.10 mph63%29.77 "Hg3 mi
10:40 AM91 °FScattered clouds.9 mph67%29.77 "Hg3 mi
10:10 AM90 °FScattered clouds.8 mph67%29.77 "Hg3 mi
9:40 AM90 °FScattered clouds.9 mph71%29.77 "Hg3 mi
9:10 AM90 °FScattered clouds.8 mph71%29.80 "Hg3 mi
8:10 AM88 °FScattered clouds.7 mph75%29.77 "Hg2 mi
7:40 AM88 °FScattered clouds.6 mph75%29.77 "Hg2 mi
7:10 AM88 °FScattered clouds.6 mph75%29.77 "Hg2 mi
6:40 AM88 °FScattered clouds.7 mph75%29.74 "Hg2 mi
6:10 AM88 °FPassing clouds.5 mph75%29.74 "Hg2 mi
5:40 AM86 °FPassing clouds.8 mph75%29.74 "Hg2 mi
5:10 AM86 °FPassing clouds.8 mph79%29.74 "Hg2 mi
4:40 AM86 °FPassing clouds.6 mph84%29.71 "Hg2 mi
4:10 AM86 °FPassing clouds.6 mph79%29.71 "Hg2 mi
3:40 AM86 °FPassing clouds.7 mph79%29.71 "Hg2 mi
3:10 AM86 °FPassing clouds.8 mph79%29.71 "Hg2 mi
2:40 AM88 °FPassing clouds.9 mph75%29.71 "Hg2 mi
2:10 AM86 °FPassing clouds.10 mph79%29.71 "Hg2 mi
1:40 AM86 °FPassing clouds.8 mph79%29.71 "Hg2 mi
1:10 AM88 °FHaze.5 mph75%29.74 "Hg2 mi
12:40 AM88 °FHaze.5 mph75%29.77 "Hg2 mi
12:10 AM88 °FHaze.9 mph75%29.77 "Hg2 mi
11:40 PM
Wed, May 27
88 °FPassing clouds.9 mph75%29.80 "Hg2 mi
11:10 PM88 °FPassing clouds.9 mph75%29.80 "Hg2 mi
10:40 PM88 °FPassing clouds.9 mph75%29.80 "Hg2 mi
10:10 PM88 °FPassing clouds.12 mph75%29.80 "Hg2 mi
9:40 PM88 °FPassing clouds.12 mph70%29.80 "Hg2 mi
9:10 PM88 °FPassing clouds.13 mph75%29.77 "Hg2 mi
8:40 PM88 °FPassing clouds.9 mph75%29.77 "Hg2 mi
8:10 PM88 °FPassing clouds.9 mph75%29.77 "Hg2 mi
7:10 PM88 °FScattered clouds.10 mph75%29.77 "Hg4 mi
6:40 PM90 °FScattered clouds.10 mph71%29.74 "Hg4 mi
6:10 PM90 °FScattered clouds.13 mph67%29.74 "Hg4 mi
5:40 PM90 °FScattered clouds.14 mph71%29.74 "Hg4 mi
3:40 PM91 °FScattered clouds.13 mph67%29.74 "Hg4 mi
3:10 PM91 °FScattered clouds.13 mph63%29.74 "Hg4 mi
2:40 PM90 °FScattered clouds.9 mph67%29.77 "Hg4 mi
2:10 PM91 °FScattered clouds.13 mph67%29.77 "Hg4 mi
1:40 PM91 °FScattered clouds.15 mph67%29.77 "Hg4 mi
1:10 PM91 °FScattered clouds.12 mph63%29.80 "Hg4 mi
Weather by CustomWeather, © 2015

See weather overviewHow to use our weather pages